FENGYUN 1C DEB

Satellite information

Favourite Embed

Satellite Type and Status

DEBRISIN ORBIT

Key statistics

Satellite FENGYUN 1C DEB at a glance.

Uptime

9659

Days in orbit

Revolutions

≈ 14.5

Per day

Orbit

SSO

Sun Synchronous Orbit

Inclination

99.0

Latest

Satellite identification and parameters

Extended collection of information and parameters for FENGYUN 1C DEB.

Object identification

Identified? True

Debris? True

Object name: FENGYUN 1C DEB

International designator: 1999-025AXX

Object number (NORAD): 30885

Object ID (CCSDS): 30885

Country: PEOPLES REPUBLIC OF CHINA (PRC)

Current information (Y/N): Y

RCS size: SMALL

Orbital parameters

Period: 99.455 minutes

Inclination: 99.0311 deg

SMA: 7110.691 km

Apoapsis: 772.857 km

Periapsis: 692.255 km

RAAN: 127.5215 deg

Eccentricy: 0.00566764

Argument of periapsis: 24.8098 deg

Mean anomaly: 351.855 deg

Mean motion: 14.47888306 rev/day

Mean motion (dot): 0.00013063 rev/day2

B* drag term: 0.0034626453 1/REarth

Two-line elements (TLE)

Creation date: Oct. 18, 2025, 2:17 a.m.

Reference frame: TEME

Reference center: EARTH

Epoch: Oct. 17, 2025, 8:09 p.m. UTC

TLE line 0: 0 FENGYUN 1C DEB

TLE line 1: 1 30885U 99025AXX 25290.83977561 .00013063 00000-0 34626-2 0 9999

TLE line 2: 2 30885 99.0311 127.5215 0056676 24.8098 351.8550 14.47888306961689

Live tracking on map

Real-time ground track for satellite FENGYUN 1C DEB.

In-orbit conjunctions

A list of the most updated potential collisions computed for object FENGYUN 1C DEB.

Target Orbit TCA Probability of collision Miss distance Type
COSMOS 2251 DEB LEO 2025-08-04 00:46:25 0.0002080977 142.0 (m) DEBRIS
COSMOS 1275 DEB LEO 2024-11-14 23:24:01 0.0002767329 840.0 (m) DEBRIS
SL-8 R/B LEO 2024-09-29 10:03:08 0.0002976522 134.0 (m) ROCKET BODY

Associated space launch

Chinese polar orbiting meteorological satellite

FENGYUN 1C DEB was lifted into orbit during the mission ‘Long March 4B | Feng Yun 1C’, on board a Long March 4B space rocket.

The launch took place on May 10, 1999, 1:33 a.m. from Launch Complex 7.

For more information about the launch, click the button.

Launch to space Long March 4B | Feng Yun 1C
Long March 4B | Feng Yun 1C

Agency: N/A

Status: Launch Successful

Launch date: May 10, 1999, 1:33 a.m. UTC

Rocket: Long March 4B

Launch pad: Launch Complex 7

Location: Taiyuan Satellite Launch Center, People's Republic of China

...

Latest news about this satellite

There are no fresh news available about this satellite. Check back as we update our databases every day.


Newsletter sign-up

Weekly statistics, charts and insights to help you stay on top of the space industry.